Regional Weather Roundup
Issued by NWS

Home | Current Version | Previous Version | Text Only | Print | Product List | Glossary On
Versions: 1 2 3 4 5 6 7 8 9 10 11 12 13 14 15 16 17 18 19 20 21 22 23 24 25 26 27 28 29 30 31 32 33 34 35 36 37 38 39 40 41 42 43 44 45 46 47 48 49 50
000
ASUS43 KMKX 210921
RWRWI

WISCONSIN REGIONAL WEATHER ROUNDUP
NATIONAL WEATHER SERVICE MILWAUKEE/SULLIVAN WI
400 AM CDT MON APR 21 2014

NOTE: "FAIR" INDICATES FEW OR NO CLOUDS BELOW 12,000 FEET WITH NO
SIGNIFICANT WEATHER AND/OR OBSTRUCTIONS TO VISIBILITY.

WIZ001-002-006>008-014>016-023>028-211000-
NORTHWEST WISCONSIN

CITY           SKY/WX    TMP DP  RH WIND       PRES   REMARKS
SUPERIOR ARPT  PTCLDY    29  28  96 CALM      29.90F
ASHLAND        PTCLDY    33  31  92 SW3       29.93F
HAYWARD        MOCLDY    34  30  85 CALM      29.92F
SIREN          PTCLDY    41  34  77 SE3       29.90F
RICE LAKE      FOG       48  47  95 CALM      29.93F VSB<1/4
LADYSMITH      FOG       49  49  97 CALM      29.95F VSB 1/4
EAU CLAIRE     CLOUDY    53  52  96 NE6       29.91F
MENOMONIE      CLOUDY    52  51  96 SE6       29.91F FOG
NEW RICHMOND   CLOUDY    56  54  95 SE6       29.90F
OSCEOLA        MOCLDY    54  52  94 N3        29.92F
$$

WIZ003>005-009-010-017-018-211000-
NORTH CENTRAL WISCONSIN

CITY           SKY/WX    TMP DP  RH WIND       PRES   REMARKS
WOODRUFF       HAZE      39  33  79 CALM      29.93F VSB 1/4
RHINELANDER    FOG       40  40 100 CALM      29.95F VSB 1/4
EAGLE RIVER    FOG       33  33 100 CALM      29.94F VSB 1/4
LAND O LAKES   MOCLDY    29  28  94 CALM      29.95F
PHILLIPS       FOG       42  42 100 CALM      29.94F VSB 1/4
TOMAHAWK       FOG       40  39  97 CALM      29.95S VSB 1/4
MEDFORD        CLOUDY    49  49 100 CALM      29.94F FOG
MERRILL        CLOUDY    48  48 100 CALM      29.95F FOG
$$

WIZ029-030-035-036-043>047-211000-
CENTRAL WISCONSIN

CITY           SKY/WX    TMP DP  RH WIND       PRES   REMARKS
WAUSAU         CLOUDY    52  51  97 NW3       29.94R FOG
MOSINEE        CLOUDY    52  52 100 CALM      29.96S FOG
MARSHFIELD     FOG       52  51  97 CALM      29.94F VSB 1
STEVENS POINT  CLOUDY    49  49  99 CALM      29.95S FOG
WAUPACA        CLOUDY    54  52  94 CALM      29.95R FOG
WAUTOMA        LGT RAIN  52  52 100 W3        29.95S FOG
WISC RAPIDS    CLOUDY    52  51  97 S3        29.95S FOG
CAMP DOUGLAS   FOG       52  52 100 SE3       29.93F VSB 1/2
$$

WIZ011>013-019>022-031-037>040-048>050-211000-
NORTHEAST WISCONSIN

CITY           SKY/WX    TMP DP  RH WIND       PRES   REMARKS
ANTIGO         CLOUDY    46  45  99 CALM      29.95S FOG
STURGEON BAY   CLOUDY    45  39  81 CALM      29.94F
GREEN BAY      CLOUDY    49  48  97 NE3       29.93F FOG
MANITOWOC      CLOUDY    45  40  82 CALM      29.93F
APPLETON       CLOUDY    50  48  93 W8        29.95S FOG
CLINTONVILLE   CLOUDY    50  50 100 CALM      29.94S FOG
OSHKOSH        CLOUDY    50  47  89 CALM      29.93F FOG
$$

WIZ032>034-041-042-053>061-211000-
SOUTHWEST WISCONSIN

CITY           SKY/WX    TMP DP  RH WIND       PRES   REMARKS
LA CROSSE      CLOUDY    57  54  89 S5        29.91F
SPARTA         FOG       52  52  98 CALM      29.93F VSB 3/4
VIROQUA        CLOUDY    55  55 100 S9        29.93F
BOSCOBEL       FOG       55  53  93 CALM      29.93F VSB 1
PRAIRIE DU CHI CLOUDY    55  54  96 CALM      29.92F FOG
PLATTEVILLE    FAIR      56  49  79 CALM      29.95F
$$

WIZ056-057-062-063-064-067-068-211000-
SOUTH CENTRAL WISCONSIN

CITY           SKY/WX    TMP DP  RH WIND       PRES   REMARKS
BARABOO/DELLS  CLOUDY    54  52  91 N5        29.94S
LONE ROCK      CLOUDY    54  53  97 S3        29.94F
WATERTOWN      LGT RAIN  60  47  60 S6        29.94S
MADISON        LGT RAIN  61  51  70 SW3       29.94F
MIDDLETON      CLOUDY    60  50  68 NW5       29.94S
MONROE         CLOUDY    59  48  67 S8        29.95F
JANESVILLE     CLOUDY    61  46  59 S7        29.96S
$$

WIZ051-052-058>065-066-070>072-211000-
SOUTHEAST WISCONSIN

CITY           SKY/WX    TMP DP  RH WIND       PRES   REMARKS
MILWAUKEE      CLOUDY    63  45  51 SW12      29.96S
WAUKESHA       RAIN      57  46  67 S9        29.98R
MILWAUKEE/TIMM RAIN      61  46  59 SW10      29.96S
RACINE         CLOUDY    64  45  49 SW10G20   29.98F
BURLINGTON     CLOUDY    57  49  73 SW8       29.97F
KENOSHA        LGT RAIN  59  47  64 W10       29.97F
FOND DU LAC    CLOUDY    49  46  90 CALM      29.94S
SHEBOYGAN      CLOUDY    45  41  86 CALM      29.93S
WEST BEND      CLOUDY    63  43  48 SW6       29.94S
JUNEAU         CLOUDY    56  45  65 CALM      29.95S
$$

LSZ147-162-211000-
LAKE SUPERIOR

STATION/POSITION TIME  TEMP    WIND        PRES    WAVE
                       AIR SEA DIR/SP/G            HT/PER
                 (UTC) (F)     (DEG/KT/KT) (MB)    (FT/S)
DEVILS ISLAND    0900   42      50/  4/  5 1013.6F
PORT WING        0800           CALM  /  3 1013.5
SAXON HARBOR     0800          190/  3/  5 1013.2F
$$

LMZ867-665-643>646-211000-
LAKE MICHIGAN

STATION/POSITION TIME  TEMP    WIND        PRES    WAVE
                       AIR SEA DIR/SP/G            HT/PER
                 (UTC) (F)     (DEG/KT/KT) (MB)    (FT/S)
NORTHPORT PIER   0800   40     140/  1/  2 1014.2F
SISTER BAY       0809   42      CALM  /  3   N/A
KEWAUNEE LAKESHO 0900   41     320/  3/  4 1014.3S
SHEBOYGAN LAKESH 0900   44      90/  4/  5 1014.1F
PORT WASHINGTON  0800   45        CALM     1014.6F
MILWAUKEE LAKESH 0900   63     240/ 11/ 13   N/A
KENOSHA   LAKESH 0900   64     230/ 10/ 16   N/A
$$

TC  - TEMPERATURE IN CELSIUS
VSB - VISIBILITY IN STATUTE MILES
WCI - WIND CHILL INDEX
HX  - HEAT INDEX




USA.gov is the U.S. government's official web portal to all federal, state and local government web resources and services.